Weather Roundup
Issued by NWS Chicago, IL

Home | Current Version | Previous Version | Text Only | Print | Product List | Glossary Off
Versions: 1 2 3 4 5 6 7 8 9 10 11 12 13 14 15 16 17 18 19 20 21 22 23 24 25 26 27 28 29 30 31 32 33 34 35 36 37 38 39 40 41 42 43 44 45 46 47 48 49 50

000
NZUS59 KLOT 282309
HRRLOT

CHICAGO AREA WEATHER ROUNDUP
NATIONAL WEATHER SERVICE CHICAGO/ROMEOVILLE IL
600 PM CDT FRI AUG 28 2015

NOTE: "FAIR" INDICATES FEW OR NO CLOUDS BELOW 12,000 FEET WITH NO
SIGNIFICANT WEATHER AND/OR OBSTRUCTIONS TO VISIBILITY.

* THESE STATIONS ARE NOT UNDER NWS QUALITY CONTROL. THEY ALSO MAY NOT
  REPORT WEATHER SUCH AS PRECIPITATION OR FOG.

ILZ005-006-012>014-019>023-290000-
NORTHEAST ILLINOIS

CITY           SKY/WX    TMP DP  RH WIND       PRES   REMARKS
OHARE          CLOUDY    71  61  70 SE6       30.07S
MIDWAY         CLOUDY    75  60  59 SE7       30.07S
AURORA         CLOUDY    70  64  81 E7        30.07F
LANSING*       CLOUDY    73  62  68 E3        30.07F
JOLIET*        CLOUDY    73  65  76 E3        30.07S
WAUKEGAN       LGT RAIN  68  62  81 E3        30.07F
DUPAGE AIRPORT CLOUDY    70  61  73 E6        30.06F
WHEELING       CLOUDY    72  59  63 SE3       30.08F
KANKAKEE*      CLOUDY    74  64  71 CALM      30.07F
MORRIS*        CLOUDY    70  65  83 E6        30.05F
LEWIS AIRPORT* CLOUDY    71  61  71 E3        30.07S
NORTHERLY IS     N/A     68  62  81 CALM        N/A
$$

WIZ051-052-058>065-066-070>072-290000-
SOUTHEAST WISCONSIN

CITY           SKY/WX    TMP DP  RH WIND       PRES   REMARKS
MILWAUKEE      LGT RAIN  69  62  78 E7        30.07F
KENOSHA*       LGT RAIN  70  62  76 CALM      30.08F
RACINE*        LGT RAIN  69  61  75 E3        30.09F
BURLINGTON     RAIN      64  62  92 SE3       30.08F
WAUKESHA       CLOUDY    64  63  94 E6        30.08F
WEST BEND      RAIN      66  63  88 CALM      30.08F
$$

INZ001>003-010>013-019-020-290000-
NORTHWEST INDIANA

CITY           SKY/WX    TMP DP  RH WIND       PRES   REMARKS
GARY*          CLOUDY    73  63  68 VRB5      30.08F
MICHIGAN CITY* NOT AVBL
RENSSELAER*    NOT AVBL
VALPARAISO     CLOUDY    73  63  70 CALM      30.09F
$$

LMZ740>746-290000-
SOUTHERN LAKE MICHIGAN

STATION/POSITION TIME  SKY/WX   TEMP WIND        PRES    VSBY
                                AIR  DIR/SP/G
                 (UTC)          (F)  (DEG/KT/KT) (MB)    (MI)
HARRISON CRIB    2200            70  100/  7/  8   N/A
BURNHAM HARBOR   2300            68   CALM  /  4   N/A
CALUMET HARBOR   NOT AVBL
BURNS HARBOR     2200            72   40/  6/  6 1019.3S
MICHIGAN CITY    2200            70   20/  3/  4   N/A
$$

ABBREVIATIONS USED IN REMARKS
   TC - TEMPERATURE IN CELSIUS
  WCI - WIND CHILL INDEX
   HX - HEAT INDEX
  VSB - VISIBILITY
$$



USA.gov is the U.S. government's official web portal to all federal, state and local government web resources and services.